Home   Weather   Celje   Past weeks

Flag for Slovenia Past Weather in Celje, Slovenia — Yesterday and Last 2 Weeks

Now
49 °F

Cool.


Feels Like: 46 °F
Forecast: 40 / 50 °F
Wind: 6 mph from West

Location: Celje

Current Time: Feb 23, 2017 at 6:03:17 am

Latest Report: Feb 23, 2017 at 5:00 am


Visibility: N/A

Pressure: 29.91 "Hg

Humidity: 65%

Dew Point: 37 °F

Location of CeljeLocation

Past Weather in Celje — Graph

°F

Celje Temperature Yesterday

Maximum temperature yesterday: 55 °F (at 1:00 pm)
Minimum temperature yesterday: 33 °F (at 1:00 am)
Average temperature yesterday: 43 °F

High & Low Weather Summary for the Past Weeks

 TemperatureHumidityPressure
High56 °F (Feb 17, 2:00 pm)97% (Feb 12, 7:00 am)30.68 "Hg (Feb 12, 7:00 am)
Low22 °F (Feb 15, 7:00 am)34% (Feb 15, 2:00 pm)29.90 "Hg (Feb 23, 3:00 am)
Average36 °F79%30.35 "Hg
* Reported Feb 8 4:00 am — Feb 23 4:00 am, Celje, Weather by CustomWeather, © 2017

Note: Actual official high and low records may vary slightly from our data, if they occured in-between our weather recording intervals... More about our weather records

Advertising

Celje Weather History for the Previous 24 Hours

Scroll right to see more
 ConditionsComfort  
Time TempWeatherWind HumidityBarometerVisibility
4:00 am
Thu, Feb 23
48 °FCool.8 mph65%29.91 "HgN/A
3:00 am47 °FCool.3 mph65%29.90 "HgN/A
2:00 am47 °FCool.6 mph63%29.92 "HgN/A
1:00 am47 °FCool.3 mph62%29.93 "HgN/A
12:00 am47 °FCool.6 mph64%29.93 "HgN/A
11:00 pm
Wed, Feb 22
47 °FCool.8 mph64%29.92 "HgN/A
10:00 pm45 °FCool.3 mph72%29.94 "HgN/A
9:00 pm46 °FCool.5 mph70%29.93 "HgN/A
8:00 pm48 °FCool.3 mph68%29.93 "HgN/A
7:00 pm49 °FCool.7 mph65%29.92 "HgN/A
6:00 pm51 °FCool.7 mph63%29.92 "HgN/A
5:00 pm51 °FCool.6 mph61%29.92 "HgN/A
4:00 pm52 °FCool.8 mph60%29.92 "HgN/A
3:00 pm54 °FCool.7 mph58%29.93 "HgN/A
2:00 pm54 °FScattered clouds.8 mph58%29.95 "Hg22 mi
1:00 pm55 °FCool.9 mph57%29.96 "HgN/A
12:00 pm54 °FCool.6 mph56%29.98 "HgN/A
11:00 am49 °FCool.1 mph68%30.02 "HgN/A
10:00 am44 °FQuite cool.1 mph81%30.03 "HgN/A
9:00 am38 °FChilly.1 mph90%30.06 "HgN/A
8:00 am33 °FChilly.No wind93%30.07 "HgN/A
7:00 am33 °FOvercast.No wind93%30.06 "Hg6 mi
6:00 am33 °FChilly.1 mph92%30.06 "HgN/A
Weather by CustomWeather, © 2017

See weather overviewHow to use our weather pages